GFSSE_prec_cthk_198.txt.gz
RH
29 29 30 32 29 27 25 26 26 30 30 27 24 21 22 23 23 22 22 21 21 21 23 28 29 31 34 31 31 31 33 34 36 39 41 37 37 38 37 39 41 41 40
27 29 32 33 32 30 27 27 26 27 29 27 26 23 22 23 25 23 22 22 22 21 23 26 28 29 31 32 34 35 36 36 40 43 43 38 37 37 38 41 41 41 37
26 28 30 32 34 34 30 29 28 29 31 29 27 26 24 24 24 25 24 22 21 21 23 27 31 32 31 28 27 28 31 33 33 34 36 38 39 41 42 44 44 41 39
25 27 31 32 34 36 34 31 30 31 32 32 28 28 26 25 25 26 25 25 24 23 24 29 30 33 33 26 25 24 26 29 30 31 31 35 41 43 44 44 43 38 37
23 26 29 34 33 35 36 35 31 32 33 33 30 27 28 26 27 27 26 27 27 26 25 26 29 32 35 34 32 32 29 28 30 30 32 31 32 36 41 42 43 40 40
23 25 27 30 34 34 36 37 35 35 35 34 32 28 29 28 28 29 28 27 28 28 28 26 25 26 34 38 35 33 31 28 29 29 30 30 30 32 32 35 38 38 39
22 24 28 31 34 34 35 38 38 37 37 36 33 30 29 30 30 30 32 30 30 29 30 29 27 28 27 31 35 33 31 29 28 29 29 35 33 30 29 32 35 35 34
22 24 25 29 35 35 35 40 41 41 39 37 35 32 30 30 31 32 33 34 32 31 31 31 31 29 29 30 29 30 31 29 28 25 29 34 38 50 45 32 28 29 32
23 25 26 29 32 37 35 40 45 45 43 40 38 34 32 30 31 33 33 35 36 33 33 33 34 34 33 31 29 29 31 31 30 28 25 27 31 47 59 57 44 36 29
23 24 26 30 32 34 35 39 45 49 47 45 43 40 34 32 31 32 34 35 37 41 40 36 35 36 35 37 35 33 31 33 33 34 33 28 28 44 58 68 65 45 39
22 23 26 31 34 34 31 37 41 48 49 48 50 49 46 41 34 32 34 36 38 39 42 45 43 39 38 37 37 37 35 32 30 30 31 34 30 30 37 47 61 68 60
20 21 24 30 34 36 36 33 41 45 47 48 49 50 50 46 46 38 36 37 38 40 42 45 47 47 45 45 45 43 39 35 31 28 27 31 32 33 41 57 56 62 54
19 22 25 28 34 38 40 38 41 47 46 47 48 49 51 48 47 45 41 38 40 41 42 44 46 48 48 49 51 53 51 46 39 34 32 33 31 31 35 38 34 34 38
20 24 26 28 33 38 42 45 42 49 52 46 46 47 49 48 48 48 49 43 42 42 46 46 45 46 49 51 52 54 55 54 49 46 44 44 44 38 33 31 36 42 44
20 23 25 30 32 36 40 47 49 45 52 54 47 47 48 50 50 54 49 47 49 48 50 49 47 51 52 51 54 58 61 60 56 53 51 51 55 51 45 49 48 45 46
22 23 26 31 33 36 37 45 54 52 50 52 52 48 48 51 51 52 54 60 47 48 49 57 54 54 55 58 60 61 65 68 66 63 59 57 58 65 69 65 66 65 54
25 25 26 31 32 35 36 40 50 55 52 51 51 49 51 53 52 50 55 59 53 50 54 57 58 61 61 62 65 71 67 68 74 72 69 65 64 66 68 68 71 72 71
24 26 28 31 32 33 34 39 45 54 56 51 52 53 53 54 53 53 54 61 62 59 59 59 61 65 68 67 66 72 73 80 79 76 75 78 77 70 70 68 70 77 76
25 25 28 31 32 33 33 38 42 47 55 56 52 50 51 51 51 54 56 59 61 62 63 65 68 73 74 74 71 74 75 79 81 78 79 84 84 82 79 77 76 78 76
25 26 28 30 32 32 34 37 42 45 52 56 53 51 49 49 49 47 48 54 58 59 62 62 73 73 77 84 83 83 84 87 88 83 85 94 94 93 88 88 82 83 77
25 26 27 29 31 30 32 35 40 42 48 53 49 49 50 51 51 51 48 49 51 56 59 61 73 71 80 83 87 85 88 90 92 91 87 93 90 90 93 90 86 79 80
26 27 28 30 28 28 31 33 38 42 47 49 48 50 54 54 54 59 55 51 57 62 65 65 69 80 85 88 89 89 92 94 95 96 83 88 95 90 91 91 91 83 79
26 27 29 28 26 28 30 32 35 40 42 45 48 50 52 56 59 57 52 55 61 69 72 70 76 85 93 95 91 93 93 94 99 95 88 84 94 90 88 94 89 92 85
29 29 29 26 25 27 29 33 38 40 44 48 52 54 59 63 59 62 66 66 68 65 65 66 77 89 92 89 94 90 93 93 95 97 90 97 95 84 94 95 94 95 89
30 29 28 27 26 27 29 33 38 43 46 50 58 58 60 57 58 59 64 63 54 51 57 60 69 74 74 77 81 85 94 91 96 92 90 98 97 99 96 99 99 96 91
29 30 29 28 28 29 32 34 39 42 44 46 49 53 57 54 70 72 66 58 54 52 55 54 62 67 67 73 89 85 90 89 98 91 96 98 99 88 96 98 93 91 88

GFSSE_prec_cthk_201.txt.gz
RH
26 26 29 31 30 27 28 30 30 32 33 33 29 24 23 24 25 22 21 20 23 28 29 33 36 34 31 31 31 33 34 36 37 37 36 36 36 36 39 38 37 37 38
24 25 28 29 30 28 28 28 28 29 29 29 27 25 23 24 24 22 22 20 20 22 27 29 31 31 31 33 33 34 35 37 38 38 36 37 37 38 41 40 40 37 36
23 24 26 28 30 30 29 29 26 26 27 28 27 26 24 24 25 25 24 22 20 20 23 27 30 31 28 27 27 30 31 32 33 34 35 39 40 41 43 44 42 38 37
22 25 26 27 30 32 30 32 30 28 28 28 28 26 26 25 27 27 25 25 23 22 24 27 29 32 28 25 24 26 26 27 29 31 33 36 40 41 42 43 41 37 37
23 24 26 28 31 32 33 33 33 32 31 29 29 27 28 27 27 29 26 26 26 26 25 24 27 31 32 28 27 27 26 26 28 31 30 30 32 37 39 42 42 40 39
22 23 26 28 32 34 35 34 36 34 34 31 29 28 28 28 28 29 30 27 28 29 28 27 25 25 29 31 28 26 24 25 27 28 29 30 30 31 30 35 37 39 38
22 23 26 29 35 37 37 36 38 37 36 34 31 29 29 29 30 30 32 31 29 29 30 30 29 28 29 32 32 29 27 26 26 25 27 33 33 36 30 31 31 33 35
21 23 26 28 32 38 39 39 41 42 39 37 33 31 30 30 31 32 33 34 32 30 30 30 32 32 32 32 32 33 32 30 29 27 26 29 33 44 47 39 32 30 32
20 24 25 28 31 37 41 39 43 45 44 41 38 35 32 32 31 32 34 35 36 37 34 32 32 33 34 35 35 34 34 33 31 29 27 27 25 37 57 54 61 48 37
20 22 24 28 31 35 38 40 40 44 49 46 44 43 39 34 34 33 34 36 38 38 39 41 40 36 34 34 33 33 33 34 35 35 35 30 27 30 46 55 54 68 56
19 21 23 26 30 33 36 36 39 42 48 51 49 50 47 43 44 41 37 37 38 40 41 41 43 44 43 41 39 37 35 33 31 29 30 32 31 30 32 35 43 54 60
18 20 22 25 28 33 35 36 36 42 47 50 51 50 50 48 45 44 44 41 40 42 43 43 44 46 47 47 47 47 48 46 40 34 31 32 33 36 38 39 50 52 58
17 21 22 24 28 33 36 37 36 39 46 46 50 50 48 50 49 45 45 45 43 43 44 47 46 47 49 51 51 52 52 52 51 47 42 42 42 43 44 38 38 34 39
18 22 24 25 28 32 38 38 38 39 45 47 47 49 48 45 52 45 47 47 49 46 48 51 50 52 52 51 53 55 58 59 59 55 51 49 49 52 62 50 42 47 47
20 23 26 28 29 32 36 40 41 42 44 52 51 49 47 48 47 53 46 59 54 52 46 46 50 54 56 57 58 60 62 61 63 64 62 58 54 53 58 60 73 73 71
22 24 27 29 30 33 35 38 42 45 46 48 56 58 51 48 49 53 50 53 60 55 50 49 49 54 57 58 60 60 61 69 69 68 71 70 65 59 57 59 74 78 72
21 23 27 30 31 32 34 38 40 46 50 49 51 56 57 52 53 54 54 57 58 57 58 54 53 54 57 59 61 60 61 67 73 71 77 76 72 72 71 67 65 65 69
19 22 25 29 31 33 35 37 41 41 51 53 52 54 53 52 52 54 55 56 58 60 61 60 57 55 56 63 75 66 70 71 74 79 81 81 80 78 77 79 78 74 72
21 23 24 27 31 33 34 37 40 40 44 53 54 54 55 55 54 55 54 55 58 61 62 62 63 65 65 70 69 73 78 77 77 79 80 84 84 81 81 89 85 87 84
22 23 24 26 29 33 34 37 38 40 41 49 56 55 54 53 50 50 52 53 55 56 58 58 61 65 65 73 75 79 81 82 85 85 86 91 89 91 91 88 82 85 88
22 21 24 25 27 30 33 34 34 36 40 43 52 55 54 52 50 51 51 52 52 50 54 61 63 65 67 74 81 86 90 91 86 86 92 97 93 92 95 85 87 84 82
22 23 23 25 27 30 33 31 32 36 39 42 51 59 51 50 51 52 51 57 59 56 58 60 66 74 76 77 87 92 87 90 91 89 90 91 88 97 98 93 89 87 89
25 24 24 26 28 30 29 29 32 36 39 45 52 55 51 55 55 54 61 61 59 61 61 67 75 75 76 77 86 89 92 90 93 94 93 94 95 96 97 98 98 98 92
26 24 25 26 28 29 29 31 33 35 37 42 46 52 54 54 54 64 66 61 64 64 64 67 65 65 70 72 83 85 88 89 87 89 91 93 98 92 98 98 96 97 92
29 29 28 29 30 32 32 33 34 37 41 43 47 53 55 58 60 60 59 62 66 69 65 61 60 65 64 65 75 78 81 76 76 84 83 89 92 93 96 95 99 99 99
31 31 31 31 32 33 34 33 35 38 41 43 46 50 54 53 51 53 54 66 72 69 58 52 54 56 58 57 63 66 70 73 80 81 84 95 89 92 90 95 93 94 98

GFSSE_prec_cthk_207.txt.gz
RH
27 20 20 22 24 28 33 36 37 37 34 32 26 26 24 24 23 22 21 24 28 30 31 30 27 28 31 31 32 32 32 33 33 33 34 34 36 37 39 44 43 39 36
25 19 20 21 24 28 34 36 37 37 35 31 26 25 25 25 23 23 22 25 27 30 31 30 29 31 30 30 32 33 33 32 32 32 33 34 36 38 41 43 38 37 34
22 19 20 21 24 29 32 35 36 36 34 29 26 24 26 26 24 23 24 25 26 27 30 26 22 23 24 25 26 26 26 29 34 41 46 44 37 38 39 39 35 34 34
20 19 21 21 23 28 31 33 35 34 33 29 26 25 26 26 26 24 25 26 25 24 27 25 22 21 21 21 22 22 24 26 31 38 47 46 40 36 34 34 33 34 35
20 21 21 23 24 26 28 30 31 32 31 29 27 26 26 26 27 27 25 26 27 24 23 26 27 24 22 20 20 21 21 23 27 33 38 37 35 32 34 35 34 34 36
20 22 22 24 27 27 29 29 31 31 31 30 29 27 26 27 28 28 27 26 28 29 28 26 25 27 29 27 25 24 24 29 38 45 36 33 32 28 27 29 31 32 32
20 23 23 25 28 31 31 31 32 33 33 31 29 29 27 27 28 29 31 30 29 29 30 31 30 29 28 28 27 27 26 32 42 47 37 40 27 28 31 30 27 27 30
20 23 22 24 28 32 34 35 33 36 36 33 30 29 29 28 28 29 31 34 35 33 31 32 33 34 33 31 29 28 26 27 42 47 50 40 30 34 34 37 38 36 33
19 23 22 24 29 32 35 37 37 37 39 39 34 32 31 30 30 30 31 34 36 38 39 37 37 36 36 35 33 32 30 29 41 59 45 42 23 27 35 39 44 46 46
20 21 20 23 28 32 35 37 39 39 39 43 40 36 35 34 36 33 33 34 35 37 39 40 42 43 42 40 39 37 36 35 44 56 48 43 33 26 35 41 47 44 43
20 20 20 22 27 31 35 37 39 41 42 43 46 43 39 37 37 37 36 36 37 38 39 40 42 43 43 44 43 44 44 49 58 56 60 49 37 32 31 35 37 42 44
19 21 21 23 28 32 38 38 39 40 42 43 47 48 45 41 38 37 37 38 39 39 40 42 43 43 44 48 47 48 50 59 57 63 59 55 45 43 44 44 46 48 53
25 22 25 24 30 33 37 41 40 41 40 42 45 48 48 49 44 45 41 36 42 44 42 42 43 45 47 57 63 58 61 62 65 69 65 62 52 51 52 50 56 54 54
33 29 25 27 29 32 37 44 44 44 45 43 46 45 51 52 50 44 47 42 42 46 50 50 51 48 51 54 58 58 56 61 67 69 68 68 61 61 65 63 59 60 57
27 32 26 28 31 31 35 42 47 47 48 47 46 48 50 55 54 48 47 48 52 56 49 57 56 53 53 55 57 58 59 61 59 61 62 64 65 66 68 68 66 64 60
24 30 30 29 31 32 32 38 41 48 52 52 51 51 49 54 56 54 51 50 51 53 56 59 55 56 54 54 55 54 55 58 62 64 67 62 65 67 69 70 69 67 68
21 30 31 29 31 32 31 35 40 45 51 53 53 54 52 54 56 55 55 53 52 54 48 54 58 57 57 57 55 55 53 53 61 67 69 66 77 78 71 70 71 72 77
21 29 33 31 30 32 34 36 40 42 45 52 52 55 52 56 61 57 58 54 52 54 50 49 54 58 57 58 61 63 60 61 63 63 68 71 73 76 74 79 80 75 75
20 25 30 30 29 32 33 36 40 42 44 47 52 53 54 53 59 66 63 59 54 53 54 52 54 56 59 61 65 69 72 70 67 72 72 73 75 80 86 84 86 83 84
20 20 23 30 31 32 34 36 39 42 44 46 47 51 56 55 53 57 63 60 57 53 56 54 54 58 60 61 65 67 68 69 69 74 78 77 78 79 80 80 87 85 77
17 17 18 22 31 32 33 36 41 41 43 46 47 48 56 56 54 53 55 60 60 55 54 54 57 59 62 64 69 67 65 68 69 69 72 78 78 77 79 79 79 84 82
16 18 20 23 27 34 35 37 43 45 47 49 51 48 50 55 55 54 57 57 57 55 59 62 63 64 64 62 63 64 66 66 65 71 74 74 75 75 78 81 78 78 80
19 18 20 24 29 36 36 40 45 46 47 47 47 45 46 49 55 57 57 58 56 59 60 61 65 68 67 68 71 70 73 74 70 72 69 66 66 69 74 74 77 77 79
21 21 22 24 27 35 41 42 39 38 40 42 42 42 44 45 53 58 56 58 60 60 63 64 66 69 66 69 73 73 76 72 70 65 62 59 61 65 68 75 70 75 74
25 22 25 24 29 39 42 42 38 40 43 44 41 42 46 46 52 57 57 64 66 65 64 66 76 71 71 70 70 72 68 64 68 63 61 60 64 63 65 69 69 77 82
24 21 26 30 37 40 41 38 39 42 47 41 42 43 44 48 53 57 58 66 65 62 63 67 73 70 69 73 75 71 64 57 55 54 53 52 57 59 62 67 69 78 77

GFSSE_prec_cthk_210.txt.gz
RH
24 17 19 22 24 28 32 35 36 33 30 25 23 22 23 20 20 21 24 26 27 28 27 26 29 31 30 31 31 31 31 31 31 31 31 32 33 36 38 39 35 35 33
21 17 18 21 25 27 32 34 36 33 31 25 24 22 23 21 20 21 24 26 27 27 27 27 29 28 28 29 29 30 30 30 30 30 31 32 32 37 40 39 32 30 31
19 16 18 20 24 28 31 33 35 34 30 27 24 23 24 23 22 22 24 25 26 24 20 20 22 23 25 26 25 26 30 35 39 40 36 33 33 34 35 33 31 32 30
16 16 18 19 23 28 30 31 34 34 30 27 24 24 24 23 23 23 24 24 25 23 20 20 20 20 20 21 23 25 30 34 36 39 41 35 32 32 31 32 31 33 30
15 17 18 19 21 26 29 30 31 32 30 27 25 24 24 24 24 24 24 25 23 23 23 24 22 21 20 21 22 24 29 32 36 40 40 32 29 29 31 33 32 32 32
17 17 20 20 21 24 27 27 28 30 30 27 26 25 25 26 25 25 24 25 26 25 22 22 24 25 25 22 21 25 32 38 43 45 35 32 29 30 31 30 30 31 31
17 18 19 21 23 25 25 27 27 29 30 28 27 26 26 26 27 27 27 26 26 27 27 27 27 26 26 25 25 27 37 41 44 42 34 32 27 28 31 34 32 31 30
17 19 19 21 24 26 27 28 29 29 29 30 28 27 26 26 27 29 30 32 31 29 29 29 30 31 31 28 25 23 31 40 43 45 52 38 29 31 32 33 36 38 39
16 17 20 21 24 28 30 29 30 31 30 31 30 29 28 28 28 29 31 32 33 34 33 33 33 33 33 32 32 30 28 41 47 52 43 39 35 23 29 33 39 42 42
18 17 18 21 25 28 31 32 32 33 34 34 33 32 32 31 32 30 31 33 35 36 37 37 39 39 39 39 39 38 37 46 49 60 64 51 44 33 27 34 40 43 41
19 18 18 21 25 28 30 32 34 35 36 36 37 38 34 34 34 33 32 33 35 36 37 38 40 41 42 42 43 44 44 50 51 62 60 60 58 50 37 40 44 42 43
21 19 18 21 24 27 29 32 35 35 36 37 38 40 40 36 36 35 35 36 37 36 37 38 39 40 41 43 45 47 48 56 56 63 60 58 56 53 43 45 46 49 52
28 26 21 20 23 26 29 31 34 36 37 38 38 39 42 41 38 38 38 36 40 42 43 42 41 41 43 46 52 56 53 58 61 66 63 62 63 60 54 56 56 55 52
32 30 27 20 22 27 30 31 34 36 38 39 37 38 40 43 45 42 39 40 40 42 45 46 48 47 44 48 56 59 56 59 63 66 65 59 60 61 55 60 61 63 62
30 31 26 25 23 27 30 32 34 36 38 39 39 38 40 41 46 46 45 44 44 44 45 44 48 49 45 48 51 53 52 51 53 58 63 64 64 61 57 62 63 63 65
20 26 27 27 24 28 30 34 33 36 39 42 42 41 39 42 46 49 50 51 46 46 44 47 49 53 50 50 49 48 47 49 50 54 57 62 65 60 69 71 63 63 66
14 24 24 27 26 28 31 33 36 36 40 43 46 44 43 41 48 47 51 51 52 51 52 55 56 58 56 55 52 53 53 51 55 56 56 58 63 61 63 66 64 67 66
15 21 22 27 28 26 29 31 36 37 39 42 46 48 46 47 47 53 51 51 52 52 52 53 56 56 56 56 57 55 54 56 60 62 60 64 65 64 66 67 67 71 69
15 19 21 23 26 27 28 31 34 37 38 42 44 47 48 49 51 53 60 58 56 52 52 51 50 55 56 56 57 59 60 60 61 66 65 67 70 68 68 69 70 67 67
16 19 21 23 23 24 26 31 34 37 37 39 43 46 48 49 53 54 55 59 65 63 57 52 49 51 54 56 60 63 63 63 63 66 67 69 69 70 71 72 68 67 69
14 20 21 24 23 26 25 28 33 36 38 39 42 45 46 45 50 58 56 55 65 70 70 57 55 57 60 65 68 65 64 62 62 62 63 67 68 73 70 69 69 68 70
12 14 18 19 23 27 29 31 36 38 41 41 45 46 48 44 45 55 58 57 57 61 64 64 62 64 71 72 71 71 67 61 60 63 67 70 72 73 71 68 66 66 69
12 14 16 20 21 24 32 36 41 47 48 47 47 47 49 46 44 50 56 59 58 57 58 60 62 64 65 70 71 68 67 66 64 63 68 66 67 66 64 62 62 63 63
14 16 19 20 22 26 31 35 40 44 49 49 49 49 50 48 45 48 52 56 60 61 60 62 61 64 68 67 73 74 71 71 69 68 63 60 61 59 57 60 61 63 64
17 17 18 18 21 25 31 36 41 48 53 53 52 52 53 46 46 49 50 53 59 62 62 65 68 66 67 69 75 72 69 69 71 75 65 57 51 50 49 55 56 61 56
17 17 17 21 23 25 31 37 42 50 56 56 52 54 53 52 48 48 52 55 57 62 66 68 70 65 67 74 74 68 64 66 64 61 60 57 54 50 48 51 52 58 59

GFSSE_prec_cthk_216.txt.gz
RH
23 22 23 28 29 31 33 29 26 23 20 18 17 18 22 24 25 26 25 21 22 25 26 26 28 30 30 30 31 31 32 32 31 31 34 35 36 37 35 32 27 28 29
21 19 22 25 29 30 32 31 27 24 22 19 17 18 20 24 24 25 25 22 24 27 28 28 28 29 30 30 30 31 30 30 31 32 33 35 36 34 31 29 30 28 28
19 16 19 23 27 30 31 32 28 24 22 20 19 18 19 22 24 24 24 23 23 23 23 24 24 24 26 30 35 37 36 35 36 31 31 30 30 31 30 30 28 29 28
16 15 16 21 25 29 29 31 29 25 24 21 20 20 20 21 23 23 21 19 19 20 22 24 24 24 28 32 33 34 35 35 35 33 30 29 28 29 28 29 28 27 26
13 14 16 20 25 27 29 30 30 26 24 23 21 21 21 21 22 22 20 18 18 18 19 20 21 24 28 29 27 26 29 28 30 28 26 27 26 26 26 26 27 26 25
12 13 15 18 24 26 27 28 29 28 25 24 23 22 22 22 22 21 20 21 22 21 19 18 18 21 24 27 28 30 30 28 29 25 23 24 23 25 26 24 23 23 23
11 12 15 18 23 24 26 27 27 27 28 25 25 24 23 23 24 24 23 21 21 21 22 22 22 22 26 31 34 34 33 32 26 25 26 24 22 25 28 29 31 29 30
11 12 13 18 21 24 24 25 26 26 28 28 25 25 25 24 25 26 25 25 24 25 25 25 24 23 28 32 34 36 36 35 34 34 32 31 28 26 21 26 26 29 30
13 12 14 17 20 21 22 24 25 26 27 29 28 26 25 26 26 28 29 28 27 26 26 27 27 26 27 35 37 40 42 43 42 41 42 39 37 36 34 27 32 34 35
14 13 14 18 19 21 23 24 25 26 26 27 29 30 27 27 27 27 31 32 31 31 31 30 31 31 31 31 39 44 47 48 46 48 47 49 48 48 46 40 37 43 45
16 15 14 16 19 22 23 24 25 27 28 27 28 31 32 29 29 28 28 30 32 33 34 35 36 37 37 37 37 41 48 50 52 54 52 54 56 56 56 54 48 50 49
15 19 21 20 17 20 23 24 25 27 29 29 28 29 32 34 32 32 30 30 31 32 35 37 36 38 40 41 43 47 50 54 54 56 55 58 58 58 60 60 55 53 51
16 20 22 22 21 23 22 24 26 26 29 31 31 29 30 33 35 35 34 33 35 37 38 39 40 39 39 41 41 43 48 52 54 54 54 58 58 62 60 60 53 58 54
15 21 22 22 21 23 25 24 26 26 28 31 33 32 31 31 35 36 37 36 37 36 38 40 41 40 42 41 41 44 45 48 50 54 54 56 56 60 60 55 58 58 60
15 17 22 22 20 22 24 25 24 26 27 29 32 34 33 33 32 35 36 38 37 38 40 40 42 42 42 45 44 45 46 49 50 53 54 52 53 53 58 58 55 59 62
15 17 19 21 21 20 23 23 21 23 26 27 29 33 35 36 34 35 34 37 38 38 39 39 40 40 39 43 46 48 47 49 53 53 52 51 51 50 53 59 57 58 61
12 14 14 17 21 21 21 23 22 20 23 26 28 30 33 36 38 37 37 37 38 40 41 42 39 39 40 43 46 49 48 47 48 48 50 50 52 54 57 62 62 61 63
9 10 11 15 18 21 22 23 24 21 20 23 26 29 32 34 37 39 39 39 40 41 42 44 43 42 41 46 43 44 44 46 47 47 48 50 53 56 58 61 62 63 62
7 9 10 13 17 20 22 24 25 24 23 23 25 28 31 34 37 39 40 42 44 44 44 45 45 44 44 43 42 45 51 51 50 51 52 54 56 59 62 62 65 66 64
9 10 11 13 15 19 24 26 26 24 24 25 25 27 32 35 37 39 42 43 47 49 51 53 57 55 52 50 51 53 53 54 55 58 58 57 60 62 62 61 64 68 71
9 11 12 14 15 19 22 25 25 25 26 25 24 27 32 38 40 41 43 45 48 50 54 54 54 56 61 63 61 61 56 56 60 66 64 63 61 58 58 62 64 69 71
7 10 13 14 14 15 18 20 25 27 27 27 27 27 32 39 43 44 44 47 50 51 53 59 59 59 64 63 62 62 60 57 63 69 67 64 66 67 66 66 67 69 70
7 8 12 13 12 13 16 20 25 30 31 33 32 34 36 39 43 46 48 50 53 55 52 56 61 68 67 70 68 66 64 61 64 66 68 71 73 73 71 68 70 68 69
6 7 11 11 11 13 16 18 21 22 25 26 32 36 40 44 47 52 50 53 57 57 58 59 62 62 67 69 71 70 67 65 65 66 71 74 75 76 74 69 64 63 57
6 6 8 10 12 15 16 17 20 21 23 27 33 38 44 48 50 56 60 57 56 60 63 64 65 65 65 68 70 68 72 73 71 77 76 77 82 75 65 63 55 49 51
6 7 8 11 13 15 16 17 18 21 23 28 34 39 45 51 55 64 63 62 64 62 65 67 66 68 69 69 70 74 79 75 73 76 80 83 76 57 54 51 46 45 48

GFSSE_prec_cthk_219.txt.gz
RH
19 22 25 30 31 31 31 26 22 20 18 18 20 22 23 24 25 23 21 22 24 25 26 30 31 29 29 30 31 31 30 29 30 31 32 33 33 30 26 25 26 27 29
17 20 24 27 30 30 30 28 23 21 19 18 19 21 23 23 23 22 20 23 26 26 27 29 29 30 31 30 29 29 29 29 30 31 31 31 30 28 26 26 25 24 24
18 18 22 25 28 29 29 29 24 22 20 19 19 21 22 22 22 22 21 24 26 25 25 25 25 26 27 29 30 30 32 28 27 27 25 25 27 27 26 25 25 24 24
15 16 19 25 26 28 28 29 26 23 22 20 20 21 22 22 22 21 21 21 20 21 22 22 23 26 29 30 30 32 32 31 29 28 26 26 25 25 26 24 23 23 23
15 14 17 23 26 26 27 27 28 25 23 22 21 21 22 22 21 18 17 18 18 19 19 20 23 26 28 29 29 28 30 29 27 25 24 24 24 23 23 23 23 23 22
14 13 16 22 25 25 26 26 26 27 26 23 22 22 23 22 20 19 17 17 17 17 17 18 23 24 23 23 24 27 27 24 21 22 21 21 23 26 26 26 25 25 24
12 13 15 21 23 24 25 25 25 27 28 26 24 23 23 24 23 20 20 21 20 20 20 21 24 26 27 29 29 30 29 24 26 25 25 22 22 23 27 27 29 30 31
11 12 15 20 22 23 24 25 24 25 27 28 27 25 25 24 25 24 23 22 22 22 22 22 23 27 31 34 34 34 35 34 33 33 30 30 30 28 27 26 29 32 32
13 12 14 19 21 24 25 24 24 24 25 27 28 28 26 27 26 27 27 26 26 26 26 25 26 30 33 37 38 39 41 44 41 42 43 41 41 42 41 36 35 40 41
15 13 14 17 21 24 24 25 24 24 24 25 27 29 28 28 28 28 30 30 29 29 30 29 29 31 37 40 42 44 46 45 46 49 50 49 52 52 53 51 44 44 46
16 15 14 16 19 22 24 24 25 24 25 25 25 27 29 29 29 28 29 31 32 33 34 34 35 34 35 38 42 43 47 51 54 56 55 58 61 62 63 62 55 52 52
15 17 17 16 17 20 23 24 25 25 26 26 25 25 28 30 31 30 29 30 30 32 36 37 37 39 41 41 45 46 49 52 54 59 58 55 59 63 61 61 60 59 56
12 17 21 20 20 21 21 24 25 25 26 27 27 26 26 29 31 32 32 30 32 35 36 39 40 41 41 41 42 44 49 50 51 50 53 54 56 61 63 58 57 58 58
12 16 21 21 21 21 22 23 23 26 26 27 28 28 27 26 29 33 34 34 34 34 34 36 37 39 40 40 40 42 46 49 50 50 49 50 52 57 59 61 58 62 67
13 13 19 21 21 22 22 23 22 22 25 27 28 29 30 28 27 28 32 33 35 36 35 35 37 38 40 38 42 43 45 47 48 50 52 54 56 54 53 56 57 56 58
13 13 15 20 23 23 23 22 24 21 22 26 28 30 30 32 31 29 28 30 32 34 36 36 36 37 38 39 41 43 44 47 48 50 52 53 52 51 51 53 56 57 58
12 12 13 16 20 22 22 22 23 25 22 23 26 28 31 32 34 34 33 31 31 31 31 34 35 36 37 37 39 41 43 44 46 48 49 48 47 47 49 52 54 58 59
13 12 12 16 17 19 22 23 24 26 26 23 24 26 28 32 34 35 37 37 34 33 33 34 35 35 35 35 38 41 40 41 45 47 47 46 45 46 49 53 56 56 57
12 12 12 14 15 16 20 23 24 25 26 26 24 24 26 29 33 36 37 41 41 38 37 39 39 40 37 36 36 36 40 44 46 47 46 49 52 55 55 55 56 57 58
10 12 11 12 12 16 20 24 26 26 27 26 26 26 27 28 30 34 37 40 45 44 43 43 43 45 45 45 43 42 43 45 47 48 49 53 56 57 56 58 61 60 61
6 8 7 11 12 14 18 21 23 24 26 27 27 28 28 30 32 33 36 39 43 46 48 49 51 53 54 57 56 55 54 55 54 53 54 56 60 61 62 61 62 64 66
6 6 8 9 13 14 15 16 20 22 24 26 28 28 28 32 36 37 37 39 43 45 50 53 55 58 59 60 59 62 60 58 56 57 57 59 63 64 65 68 70 70 70
7 7 8 8 10 14 16 17 18 21 24 25 25 27 28 33 40 44 44 44 46 47 48 54 58 68 64 67 67 68 69 64 62 57 57 60 65 73 74 73 73 73 72
6 7 7 7 9 11 15 15 16 16 18 21 23 24 27 33 40 46 50 51 51 55 53 53 59 63 63 66 71 75 77 73 71 68 66 66 69 73 75 79 79 77 67
6 6 6 6 8 10 12 14 15 18 20 22 22 25 30 34 39 47 53 55 59 61 60 60 60 63 67 66 68 73 75 74 73 76 75 74 75 80 80 81 79 74 57
6 6 7 7 7 9 12 12 15 17 18 19 21 25 31 35 40 46 54 60 67 69 68 66 67 67 67 76 72 78 76 79 81 82 86 81 83 88 87 79 66 56 56

GFSSE_prec_cthk_222.txt.gz
RH
20 25 27 29 30 29 25 21 19 18 18 19 20 21 23 24 23 21 21 25 29 29 31 32 27 29 30 30 30 29 30 31 32 32 30 27 25 23 24 25 26 28 30
16 23 26 27 30 28 26 22 19 18 18 19 20 22 23 23 21 19 21 23 24 26 28 28 28 29 29 28 28 28 29 29 28 26 26 26 24 24 24 24 24 24 24
15 20 25 27 28 28 26 24 21 19 18 19 20 21 22 22 19 21 23 25 26 27 26 26 26 27 27 27 27 26 25 25 24 24 25 26 25 23 24 24 23 23 23
15 18 24 27 27 27 25 25 24 20 19 19 20 21 21 22 20 21 23 21 21 22 22 23 24 26 26 29 29 28 26 26 25 25 25 25 25 25 24 23 23 23 23
16 17 22 26 26 26 25 24 25 23 21 20 21 21 22 21 19 19 18 18 18 19 20 21 23 24 25 25 28 29 26 25 25 25 24 24 24 24 24 23 23 22 22
15 15 21 23 25 25 25 24 25 25 24 22 22 22 22 20 18 17 16 15 16 16 17 20 23 24 24 24 26 27 24 23 21 21 21 22 25 26 27 27 28 28 27
13 15 19 22 24 26 25 24 25 25 26 25 23 23 22 21 19 19 19 17 16 16 17 20 22 22 24 26 27 25 21 23 24 24 24 26 27 27 29 28 31 32 33
13 15 18 22 24 26 26 23 24 25 26 27 26 25 24 22 22 20 20 19 19 19 20 22 24 26 29 29 30 30 27 29 32 32 31 32 33 32 29 28 32 34 35
13 14 17 21 24 26 26 25 23 24 25 26 28 28 26 25 24 24 24 23 22 22 22 24 26 28 31 34 36 39 40 37 38 42 43 43 45 45 43 40 38 41 43
14 14 16 20 23 25 26 25 23 23 24 26 27 29 29 28 26 26 27 27 26 25 24 26 28 34 38 41 42 42 44 46 47 49 48 51 53 55 56 54 48 47 47
15 15 14 17 21 23 25 26 25 23 24 24 26 27 29 30 29 27 27 28 29 30 29 30 31 35 38 40 40 41 46 49 51 54 54 56 57 59 60 59 57 54 53
13 14 14 15 18 21 23 25 25 25 24 25 25 25 27 30 32 30 29 29 29 32 34 34 34 35 38 40 41 44 45 49 53 54 54 55 56 58 60 57 55 55 56
11 13 16 17 18 19 21 22 24 25 24 24 26 26 26 28 30 32 32 31 31 32 35 37 38 39 38 39 40 42 43 46 48 50 50 49 51 52 55 56 54 55 60
11 15 17 19 19 21 23 21 21 22 24 25 24 26 27 26 28 30 32 33 34 33 33 34 36 39 41 40 40 40 40 44 46 48 48 49 50 50 52 55 55 54 55
13 12 16 19 21 21 22 23 22 21 23 25 26 26 26 27 27 27 29 32 33 34 34 33 34 36 38 38 39 41 42 42 43 46 47 47 49 52 55 53 52 54 53
13 13 14 17 19 22 23 23 23 23 22 24 25 27 28 28 28 28 28 28 30 32 33 34 34 35 37 39 37 39 42 45 45 47 48 47 47 46 46 49 49 51 55
10 13 12 15 17 20 22 24 24 23 25 23 24 25 26 28 30 30 30 30 29 29 30 32 33 35 35 36 38 38 39 40 44 45 44 45 46 43 42 45 46 49 53
14 12 14 15 16 19 19 22 24 24 25 26 24 24 25 26 29 31 33 34 34 33 31 31 31 31 33 34 34 36 37 36 38 42 42 43 44 44 44 46 47 50 54
13 14 13 14 16 19 20 21 23 25 26 27 27 26 26 27 28 29 32 36 38 39 38 36 34 35 35 35 34 35 35 36 37 41 45 46 46 47 51 54 53 55 57
11 13 14 14 16 20 22 23 23 25 25 26 26 26 27 27 29 30 31 34 39 41 42 43 43 42 41 44 43 40 39 38 41 45 47 51 52 54 57 61 61 61 61
9 11 12 13 14 17 20 20 20 20 23 25 26 26 26 28 30 30 31 34 38 41 44 46 48 50 50 50 51 50 48 48 49 52 53 54 55 56 61 65 67 67 67
5 7 8 9 10 12 16 16 19 20 23 27 27 26 26 27 28 31 33 35 37 41 44 47 50 52 54 58 56 58 58 58 55 56 57 58 59 62 65 66 70 73 75
5 5 6 6 7 8 11 15 18 20 21 23 23 24 25 29 30 32 35 38 40 43 43 47 52 54 56 61 65 68 65 59 64 62 63 65 65 67 70 72 74 77 81
6 6 6 7 7 8 9 12 15 16 16 16 18 22 25 28 30 34 38 41 45 49 51 51 57 58 62 64 70 69 68 63 64 67 70 76 76 78 79 78 81 81 83
7 7 6 7 7 8 8 9 12 15 16 16 18 22 24 24 29 34 38 43 46 51 58 62 63 65 65 68 70 72 71 71 71 76 77 80 84 86 88 88 89 87 81
7 7 6 6 6 7 7 8 10 13 15 15 17 19 19 22 26 32 37 41 46 52 58 64 68 68 71 72 73 76 78 80 83 85 86 86 90 93 97 95 96 92 86